User: anonymous
Location: Mentone
(34.5413°N, 85.5351°W)
Time: 13:51:25
(UTC-05:00)
Language:

Okean O Rocket - Orbit

View from above orbital plane
View from above orbital plane
View from above satellite
View from above satellite

Ground track
Ground track

The orbit data is extracted from the following two-line orbital elements,

1 25861U 99039B   14245.50853751  .00000181  00000-0  32355-4 0  7161
2 25861 097.9576 203.4467 0017217 124.6461 350.7569 14.77753027815287
Epoch (UTC): 02 September 2014 12:12:17
Eccentricity: 0.0017217
inclination: 97.9576°
perigee height: 624 km
apogee height: 648 km
right ascension of ascending node: 203.4467°
argument of perigee: 124.6461°
revolutions per day: 14.77753027
mean anomaly at epoch: 350.7569°
orbit number at epoch: 81528

The dashed part of the orbit path shows where the satellite is in the earth's shadow,  

DLR